Location: McCall
(45.0000°N, 116.0000°W)
Time: 06:29:48
(UTC-06:00)

Saudisat 1A - Visible Passes

Search period start: 30 May 2016 00:00
Search period end: 09 June 2016 00:00
Orbit: 563 x 631 km, 64.6° (Epoch: 30 May)

Date Brightness Start Highest point End Pass type
(mag) Time Alt. Az. Time Alt. Az. Time Alt. Az.
30 May 8.1 01:17:15 10° NNW 01:21:50 75° NE 01:22:27 63° ESE visible
30 May 10.3 02:58:18 10° WNW 02:59:05 12° W 02:59:05 12° W visible
30 May 10.1 23:48:37 10° NNW 23:52:13 22° NE 23:55:26 11° E visible
31 May 8.1 01:27:33 10° NW 01:32:04 65° WSW 01:32:04 65° WSW visible
31 May 9.4 23:58:36 10° NNW 00:02:44 32° NE 00:05:06 20° E visible
01 Jun 9.0 01:38:02 10° NW 01:41:45 36° WSW 01:41:45 36° WSW visible
01 Jun 10.6 22:30:39 10° N 22:32:38 12° NNE 22:34:36 10° NE visible
02 Jun 8.6 00:08:41 10° NNW 00:13:09 51° NE 00:14:50 33° ESE visible
02 Jun 9.8 01:48:50 10° WNW 01:51:28 20° W 01:51:28 20° W visible
02 Jun 10.3 22:40:17 10° N 22:43:19 17° NE 22:46:19 10° ENE visible
03 Jun 8.0 00:18:53 10° NW 00:23:28 85° ENE 00:24:36 51° SE visible
03 Jun 10.4 02:00:26 10° W 02:01:15 11° W 02:01:15 11° W visible
03 Jun 9.8 22:50:10 10° NNW 22:53:54 24° NE 22:57:36 10° E visible
04 Jun 8.3 00:29:13 10° NW 00:33:41 56° WSW 00:34:25 49° SSW visible
04 Jun 9.2 23:00:10 10° NNW 23:04:23 36° NE 23:07:36 15° ESE visible
05 Jun 9.1 00:39:45 10° NW 00:43:48 32° WSW 00:44:16 31° SW visible
05 Jun 8.4 23:10:16 10° NNW 23:14:47 58° NE 23:17:30 22° ESE visible
06 Jun 9.9 00:50:39 10° WNW 00:53:48 19° WSW 00:54:10 19° WSW visible
06 Jun 8.0 23:20:30 10° NW 23:25:04 85° SW 23:27:27 28° SSE visible
07 Jun 10.5 01:03:01 10° W 01:03:44 10° WSW 01:04:07 10° WSW visible
07 Jun 8.6 23:30:52 10° NW 23:35:16 48° WSW 23:37:26 26° S visible
08 Jun 8.9 22:01:43 10° NNW 22:06:03 40° NE 22:10:17 10° ESE visible
08 Jun 9.5 23:41:28 10° WNW 23:45:20 28° WSW 23:47:28 19° SSW visible
